星链-1760 (STARLINK-1760 )

导读 | 星芒AI

STARLINK-1760 是 SpaceX Starlink 项目中的一颗低轨通信卫星,属于第二代 Starlink 卫星星座的一部分。该卫星于2023年发射,旨在为全球用户提供高速、低延迟的互联网服务。它运行在约550公里高的轨道上,配备先进通信设备和激光链路,以提升网络效率和覆盖范围。作为 Starlink 计划的重要组成,STARLINK-1760 有助于扩大卫星互联网的可用性,特别是在偏远和网络基础设施薄弱的地区。

基本信息
目录编号:
46341
目录名称:
STARLINK-1760
国际标识:
2020-062S
轨道中心:
EARTH
卫星名称:
星链-1760
卫星全名:
星链-1760 (STARLINK-1760 )
卫星状态:
已陨落 最后检测时间 2025-02-12
发射日期:
2020-09-03 UTC
国别 :
美国 (US)
星等 :
--
轨道信息
数据来源 国际轨道数据
星历时间: 2025-02-12T17:44:28+0800
轨道信息已过期306天
半长轴: 6532.308km
偏心率: 0.000599
轨道倾角: 53.029°
近地点辐角 248.938°
升交点赤经 271.013°
平近点角 285.195°
近地点: 150.26km
远地点: 158.086km
周期: 87.571分钟
每日圈数: 16.443823
详细信息
固有亮度:
5
最大亮度:
2.5
卫星平台:
Starlink V1.0
覆盖范围:
全球
运营商:
太空探索技术公司
运营商所在国:
美国
制造商(研发单位):
太空探索技术公司
制造商所在国:
美国
使用方式:
暂无
卫星简介
星链(Starlink)计划是由太空探索技术公司(SpaceX)提出的一个巨型低轨卫星互联网星座项目,计划在2019年至2024年间在太空搭建由约1.2万颗卫星组成的“星链”网络,其中1584颗将部署在地球上空550千米处的近地轨道,并从2020年开始工作。该卫星仍在工作。